+ View the NASA Portal
+ Center for Near-Earth Object Studies
IMPORTANT:
The SSD Announcement email list is now available. Major changes are coming in the near future, including possible hostname and/or URL changes. To be notified of such changes, subscribe to this email list.
Please visit
this page
for more details.
Don't show this message again
JPL Small-Body Database Browser
Search:
[
help
]
452196 (2015 RB102)
Classification:
Main-belt Asteroid
SPK-ID:
2452196
[
Ephemeris
|
Orbit Diagram
|
Orbital Elements
|
Mission Design
|
Physical Parameters
|
Discovery Circumstances
]
[ show orbit diagram ]
Orbital Elements at Epoch 2458600.5 (2019-Apr-27.0) TDB
Reference:
JPL 8
(heliocentric ecliptic J2000)
Element
Value
Uncertainty (1-sigma)
Units
e
.2231781226373704
9.7555e-08
a
2.181505432083175
3.7277e-08
au
q
1.694641145227627
2.3444e-07
au
i
4.053078884229337
7.5401e-06
deg
node
170.9909688653381
8.4423e-05
deg
peri
182.7294281564315
9.5433e-05
deg
M
49.53540262545462
2.9908e-05
deg
t
p
2458438.563006664390
(2018-Nov-16.06300666)
9.9346e-05
TDB
period
1176.881876616915
3.22
3.0165e-05
8.259e-08
d
yr
n
.3058930612771966
7.8405e-09
deg/d
Q
2.668369718938723
4.5596e-08
au
Orbit Determination Parameters
# obs. used (total)
114
data-arc span
5804 days (15.89 yr)
first obs. used
2002-08-17
last obs. used
2018-07-08
planetary ephem.
DE431
SB-pert. ephem.
SB431-N16
condition code
0
norm. resid. RMS
.61428
source
ORB
producer
Otto Matic
solution date
2019-Jul-15 06:48:39
Additional Information
Earth MOID
= .688662 au
Jupiter MOID
= 2.76798 au
T_jup
= 3.644
[ show covariance matrix ]
[
Ephemeris
|
Orbit Diagram
|
Orbital Elements
|
Mission Design
|
Physical Parameters
|
Discovery Circumstances
]
Physical Parameter Table
Parameter
Symbol
Value
Units
Sigma
Reference
Notes
absolute magnitude
H
18.5
n/a
E2015U64
452196 (2015 RB102)
Discovered 2008-May-08 by Spacewatch at Kitt Peak
Reference:
Last Updated:
2015-11-30
Alternate Designations
2015 RB102
= 2008 JN28
[
Ephemeris
|
Orbit Diagram
|
Orbital Elements
|
Mission Design
|
Physical Parameters
|
Discovery Circumstances
]
2019-Dec-12 19:34 UT
(server date/time)
Site Manager:
Ryan S. Park
Webmaster
:
Alan B. Chamberlin